Location: *
(2.5500°S, 65.9667°W)
Time: 12:10:31
(UTC+00:00)

Cosmos 2016 Rocket - Pass Details

Date: 26 October 2021
Orbit: 946 x 1001 km, 83.0° (Epoch: 28 November)

Event Time Altitude Azimuth Distance (km) Brightness Sun altitude
Rises 23:15:16 0° 176° (S) 3,711 7.2 -15.8°
Reaches altitude 10° 23:17:51 10° 173° (S) 2,754 6.4 -16.5°
Maximum altitude 23:24:04 61° 93° (E) 1,107 4.0 -18.0°
Drops below altitude 10° 23:30:10 10° 14° (NNE) 2,706 6.0 -19.4°
Enters shadow 23:32:31 - 11° (N) 3,579 6.7 -20.0°
